TVF05BD LFPO-LEBB

Flight info

Callsign TVF05BD
Flight time 1h 20m
Altitude 29000
Route AGOPA DCT ARKIP DCT ARMAL DCT ARTAX DCT BEBIX DCT LMG DCT UVELI DCT OSMOB DCT VAVIX/N0401F230 DCT BTZ DCT URUNA P181 SSN L176 CEGAM
Aircraft A20N/M-SDE2E3FGHIRWXY/LB1

Departure

Time 2026-05-07 18:00
Airport Paris-Orly Airport (LFPO)

Arrival

Time 2026-05-07 19:20
Airport Bilbao Airport (LEBB)
Time Latitude Longitude Altitude Speed Heading
2026-05-07 17:45 48.72304 2.36049 281 ft 0 kts 180°
2026-05-07 17:53 48.72305 2.36049 281 ft 1 kts 180°
2026-05-07 17:53 48.72319 2.36049 281 ft 2 kts 179°
2026-05-07 17:53 48.72334 2.36049 281 ft 2 kts 180°
2026-05-07 17:53 48.72349 2.36049 281 ft 2 kts 179°
2026-05-07 17:54 48.72364 2.36049 281 ft 2 kts 179°
2026-05-07 17:54 48.72379 2.36053 281 ft 2 kts 210°
2026-05-07 17:54 48.72391 2.36068 281 ft 2 kts 234°
2026-05-07 17:54 48.72395 2.36080 281 ft 0 kts 251°
2026-05-07 17:55 48.72397 2.36091 281 ft 0 kts 254°
2026-05-07 17:57 48.72397 2.36088 281 ft 1 kts 253°
2026-05-07 17:57 48.72391 2.36058 281 ft 8 kts 253°
2026-05-07 17:57 48.72354 2.35858 279 ft 20 kts 254°
2026-05-07 17:57 48.72311 2.35659 278 ft 18 kts 236°
2026-05-07 17:58 48.72198 2.35612 278 ft 17 kts 162°
2026-05-07 17:58 48.72085 2.35671 278 ft 17 kts 151°
2026-05-07 17:58 48.72015 2.35787 280 ft 13 kts 122°
2026-05-07 17:58 48.71970 2.35900 281 ft 12 kts 121°
2026-05-07 17:59 48.71965 2.35996 281 ft 4 kts 75°
2026-05-07 17:59 48.72006 2.36215 281 ft 54 kts 74°
2026-05-07 17:59 48.72173 2.37120 287 ft 120 kts 74°
2026-05-07 17:59 48.72449 2.38613 364 ft 165 kts 75°
2026-05-07 18:00 48.72743 2.40317 893 ft 171 kts 75°
2026-05-07 18:00 48.73037 2.42021 1643 ft 170 kts 75°
2026-05-07 18:00 48.73329 2.43735 2272 ft 173 kts 74°
2026-05-07 18:00 48.73664 2.45588 2656 ft 191 kts 73°
2026-05-07 18:01 48.74043 2.47578 3060 ft 207 kts 76°
2026-05-07 18:01 48.74174 2.49844 3443 ft 228 kts 101°
2026-05-07 18:01 48.73346 2.51963 3811 ft 251 kts 140°
2026-05-07 18:01 48.71692 2.52969 4335 ft 269 kts 176°
2026-05-07 18:02 48.68295 2.50892 6060 ft 274 kts 213°
2026-05-07 18:02 48.66721 2.49281 6862 ft 279 kts 213°
2026-05-07 18:02 48.65100 2.47674 7857 ft 277 kts 212°
2026-05-07 18:03 48.63480 2.46156 8741 ft 278 kts 211°
2026-05-07 18:03 48.61807 2.44688 9581 ft 281 kts 210°
2026-05-07 18:03 48.60110 2.43260 10415 ft 284 kts 210°
2026-05-07 18:03 48.58354 2.41800 10932 ft 298 kts 210°
2026-05-07 18:04 48.56489 2.40256 11338 ft 316 kts 210°
2026-05-07 18:04 48.54501 2.38616 11708 ft 334 kts 209°
2026-05-07 18:04 48.52434 2.36914 12015 ft 351 kts 209°
2026-05-07 18:04 48.50246 2.35114 12325 ft 368 kts 209°
2026-05-07 18:05 48.47940 2.33221 12804 ft 379 kts 209°
2026-05-07 18:05 48.45627 2.31325 13487 ft 382 kts 209°
2026-05-07 18:05 48.43299 2.29418 14187 ft 385 kts 209°
2026-05-07 18:05 48.40939 2.27487 14847 ft 388 kts 209°
2026-05-07 18:06 48.38571 2.25551 15471 ft 392 kts 209°
2026-05-07 18:06 48.36178 2.23595 16078 ft 395 kts 209°
2026-05-07 18:06 48.33761 2.21622 16679 ft 398 kts 209°
2026-05-07 18:06 48.31338 2.19646 17251 ft 402 kts 209°
2026-05-07 18:07 48.28866 2.17633 17822 ft 406 kts 209°
2026-05-07 18:07 48.26396 2.15623 18376 ft 409 kts 209°
2026-05-07 18:07 48.23892 2.13588 18924 ft 412 kts 210°
2026-05-07 18:07 48.21372 2.11541 19466 ft 415 kts 210°
2026-05-07 18:08 48.18833 2.09481 19994 ft 419 kts 209°
2026-05-07 18:08 48.16268 2.07403 20514 ft 422 kts 210°
2026-05-07 18:08 48.13674 2.05306 21019 ft 425 kts 210°
2026-05-07 18:08 48.11045 2.03275 21514 ft 428 kts 205°
2026-05-07 18:09 48.08231 2.01878 21980 ft 433 kts 194°
2026-05-07 18:09 48.05223 2.01245 22465 ft 438 kts 184°
2026-05-07 18:09 48.02187 2.01291 22987 ft 440 kts 180°
2026-05-07 18:09 47.99119 2.01480 23664 ft 438 kts 179°
2026-05-07 18:10 47.96121 2.01682 24330 ft 435 kts 179°
2026-05-07 18:10 47.93096 2.01880 24952 ft 434 kts 180°
2026-05-07 18:10 47.90080 2.02070 25541 ft 432 kts 180°
2026-05-07 18:10 47.87100 2.02252 26107 ft 431 kts 180°
2026-05-07 18:11 47.84134 2.02430 26657 ft 429 kts 180°
2026-05-07 18:11 47.82153 2.02548 27018 ft 428 kts 180°
2026-05-07 18:11 47.78179 2.02782 27692 ft 428 kts 180°
2026-05-07 18:11 47.75215 2.02956 28074 ft 430 kts 180°
2026-05-07 18:12 47.72230 2.03130 28438 ft 432 kts 180°
2026-05-07 18:12 47.69244 2.03305 28813 ft 433 kts 180°
2026-05-07 18:12 47.66237 2.03482 28998 ft 435 kts 180°
2026-05-07 18:13 47.60181 2.03835 29006 ft 436 kts 180°
2026-05-07 18:13 47.54135 2.04180 29000 ft 435 kts 180°
2026-05-07 18:14 47.48117 2.04523 28999 ft 434 kts 180°
2026-05-07 18:14 47.42123 2.04864 28997 ft 433 kts 180°
2026-05-07 18:15 47.36100 2.05041 28987 ft 432 kts 184°
2026-05-07 18:15 47.30128 2.04293 28983 ft 430 kts 190°
2026-05-07 18:16 47.24250 2.02826 28976 ft 430 kts 191°
2026-05-07 18:16 47.18328 2.01332 28976 ft 431 kts 191°
2026-05-07 18:17 47.12455 1.99852 28968 ft 430 kts 191°
2026-05-07 18:17 47.06553 1.98368 28967 ft 430 kts 191°
2026-05-07 18:18 47.00675 1.96891 28964 ft 429 kts 191°
2026-05-07 18:18 46.94797 1.95419 28961 ft 429 kts 191°
2026-05-07 18:19 46.88954 1.93957 28970 ft 429 kts 191°
2026-05-07 18:19 46.83060 1.92487 28969 ft 429 kts 191°
2026-05-07 18:20 46.77215 1.91031 28975 ft 428 kts 191°
2026-05-07 18:20 46.71336 1.89570 28969 ft 429 kts 191°
2026-05-07 18:21 46.65457 1.88114 28964 ft 429 kts 191°
2026-05-07 18:21 46.59613 1.86669 28963 ft 429 kts 191°
2026-05-07 18:22 46.53721 1.85214 28964 ft 429 kts 191°
2026-05-07 18:22 46.47845 1.83767 28962 ft 428 kts 191°
2026-05-07 18:23 46.41999 1.82329 28962 ft 428 kts 191°
2026-05-07 18:23 46.36129 1.80888 28961 ft 428 kts 191°
2026-05-07 18:24 46.30265 1.79437 28960 ft 427 kts 193°
2026-05-07 18:24 46.24773 1.76444 28963 ft 424 kts 211°
2026-05-07 18:25 46.20101 1.71348 28958 ft 423 kts 221°
2026-05-07 18:25 46.15669 1.65792 28965 ft 423 kts 221°
2026-05-07 18:26 46.11232 1.60239 28959 ft 423 kts 221°
2026-05-07 18:26 46.06796 1.54714 28954 ft 423 kts 221°
2026-05-07 18:27 46.02343 1.49187 28960 ft 423 kts 221°
2026-05-07 18:27 45.97938 1.43667 28957 ft 422 kts 224°
2026-05-07 18:28 45.94146 1.37207 28963 ft 423 kts 236°
2026-05-07 18:28 45.91305 1.29899 28964 ft 423 kts 242°
2026-05-07 18:29 45.88650 1.22385 28971 ft 423 kts 242°
2026-05-07 18:29 45.85982 1.14872 28972 ft 423 kts 242°
2026-05-07 18:30 45.83270 1.07423 28969 ft 423 kts 238°
2026-05-07 18:30 45.79735 1.00721 28966 ft 423 kts 226°
2026-05-07 18:31 45.75366 0.95114 28964 ft 422 kts 220°
2026-05-07 18:31 45.70857 0.89728 28960 ft 422 kts 220°
2026-05-07 18:32 45.66357 0.84365 28958 ft 422 kts 220°
2026-05-07 18:32 45.61881 0.79035 28956 ft 422 kts 220°
2026-05-07 18:33 45.57368 0.73669 28951 ft 421 kts 220°
2026-05-07 18:33 45.52883 0.68348 28951 ft 421 kts 220°
2026-05-07 18:34 45.48378 0.63013 28953 ft 422 kts 220°
2026-05-07 18:34 45.43884 0.57704 28949 ft 422 kts 220°
2026-05-07 18:35 45.39370 0.52381 28950 ft 422 kts 220°
2026-05-07 18:35 45.34859 0.47074 28946 ft 421 kts 220°
2026-05-07 18:36 45.30377 0.41810 28946 ft 421 kts 220°
2026-05-07 18:36 45.25859 0.36516 28938 ft 421 kts 220°
2026-05-07 18:37 45.21360 0.31256 28937 ft 420 kts 219°
2026-05-07 18:37 45.16826 0.25965 28930 ft 421 kts 219°
2026-05-07 18:38 45.12335 0.20735 28927 ft 421 kts 219°
2026-05-07 18:38 45.07806 0.15470 28927 ft 421 kts 219°
2026-05-07 18:39 45.03294 0.10241 28921 ft 421 kts 219°
2026-05-07 18:39 44.98749 0.04990 28920 ft 421 kts 219°
2026-05-07 18:40 44.94243 -0.00207 28919 ft 420 kts 219°
2026-05-07 18:40 44.89731 -0.05403 28927 ft 420 kts 219°
2026-05-07 18:41 44.85202 -0.10610 28923 ft 419 kts 219°
2026-05-07 18:41 44.80698 -0.15776 28919 ft 420 kts 219°
2026-05-07 18:42 44.76183 -0.20945 28921 ft 420 kts 219°
2026-05-07 18:42 44.71652 -0.26123 28923 ft 420 kts 219°
2026-05-07 18:43 44.67135 -0.31271 28927 ft 420 kts 219°
2026-05-07 18:43 44.62452 -0.36158 28932 ft 420 kts 215°
2026-05-07 18:44 44.57643 -0.40792 28930 ft 420 kts 215°
2026-05-07 18:44 44.52816 -0.45440 28933 ft 420 kts 215°
2026-05-07 18:45 44.48024 -0.50043 28933 ft 420 kts 215°
2026-05-07 18:45 44.43204 -0.54662 28930 ft 420 kts 215°
2026-05-07 18:46 44.38409 -0.59248 28929 ft 419 kts 215°
2026-05-07 18:46 44.33620 -0.63819 28927 ft 419 kts 215°
2026-05-07 18:47 44.28837 -0.68375 28929 ft 417 kts 214°
2026-05-07 18:47 44.24095 -0.73073 28569 ft 418 kts 216°
2026-05-07 18:47 44.21754 -0.75480 28304 ft 416 kts 217°
2026-05-07 18:48 44.19452 -0.77845 28041 ft 413 kts 217°
2026-05-07 18:48 44.17141 -0.80214 27772 ft 411 kts 216°
2026-05-07 18:48 44.14818 -0.82587 27504 ft 411 kts 216°
2026-05-07 18:48 44.12519 -0.84931 27240 ft 412 kts 217°
2026-05-07 18:49 44.10197 -0.87295 26973 ft 413 kts 217°
2026-05-07 18:49 44.07890 -0.89640 26707 ft 414 kts 217°
2026-05-07 18:49 44.05564 -0.92000 26440 ft 414 kts 217°
2026-05-07 18:49 44.03245 -0.94351 26175 ft 414 kts 217°
2026-05-07 18:50 44.00928 -0.96698 25907 ft 415 kts 217°
2026-05-07 18:50 43.98576 -0.99078 25639 ft 415 kts 217°
2026-05-07 18:50 43.96249 -1.01429 25374 ft 416 kts 217°
2026-05-07 18:50 43.93924 -1.03777 25100 ft 417 kts 217°
2026-05-07 18:51 43.91572 -1.06149 24829 ft 417 kts 217°
2026-05-07 18:51 43.89229 -1.08510 24556 ft 417 kts 217°
2026-05-07 18:51 43.86881 -1.10874 24286 ft 418 kts 217°
2026-05-07 18:51 43.84549 -1.13219 24019 ft 419 kts 217°
2026-05-07 18:52 43.82201 -1.15578 23753 ft 419 kts 217°
2026-05-07 18:52 43.79829 -1.17959 23479 ft 421 kts 217°
2026-05-07 18:52 43.77447 -1.20347 23200 ft 422 kts 217°
2026-05-07 18:52 43.75106 -1.22692 22932 ft 423 kts 216°
2026-05-07 18:53 43.72768 -1.25212 22663 ft 424 kts 222°
2026-05-07 18:53 43.70639 -1.28035 22400 ft 423 kts 225°
2026-05-07 18:53 43.68584 -1.30902 22134 ft 423 kts 225°
2026-05-07 18:53 43.66513 -1.33790 21879 ft 421 kts 225°
2026-05-07 18:54 43.64453 -1.36634 21610 ft 420 kts 225°
2026-05-07 18:54 43.62379 -1.39470 21345 ft 419 kts 225°
2026-05-07 18:54 43.60302 -1.42292 21086 ft 418 kts 225°
2026-05-07 18:54 43.58237 -1.45085 20822 ft 417 kts 225°
2026-05-07 18:55 43.56179 -1.47860 20538 ft 416 kts 225°
2026-05-07 18:55 43.54112 -1.50640 20275 ft 415 kts 224°
2026-05-07 18:55 43.52066 -1.53388 20012 ft 414 kts 224°
2026-05-07 18:55 43.50016 -1.56137 19750 ft 412 kts 224°
2026-05-07 18:56 43.47941 -1.58916 19484 ft 411 kts 224°
2026-05-07 18:56 43.45920 -1.61621 19224 ft 410 kts 224°
2026-05-07 18:56 43.43872 -1.64358 18962 ft 408 kts 224°
2026-05-07 18:56 43.41839 -1.67072 18701 ft 408 kts 224°
2026-05-07 18:57 43.39811 -1.69774 18440 ft 407 kts 224°
2026-05-07 18:57 43.37780 -1.72480 18180 ft 406 kts 224°
2026-05-07 18:57 43.35755 -1.75175 17915 ft 405 kts 224°
2026-05-07 18:57 43.33725 -1.77876 17579 ft 404 kts 224°
2026-05-07 18:58 43.31723 -1.80536 17170 ft 402 kts 224°
2026-05-07 18:58 43.29727 -1.83185 16653 ft 399 kts 224°
2026-05-07 18:58 43.27736 -1.85825 16088 ft 396 kts 224°
2026-05-07 18:58 43.25766 -1.88434 15523 ft 393 kts 224°
2026-05-07 18:59 43.23812 -1.91020 14944 ft 391 kts 224°
2026-05-07 18:59 43.21865 -1.93595 14352 ft 389 kts 224°
2026-05-07 18:59 43.19920 -1.96165 13788 ft 386 kts 224°
2026-05-07 18:59 43.18005 -1.98694 13211 ft 384 kts 224°
2026-05-07 19:00 43.16095 -2.01215 12645 ft 381 kts 224°
2026-05-07 19:00 43.14209 -2.03700 12066 ft 379 kts 224°
2026-05-07 19:00 43.12301 -2.06210 11550 ft 375 kts 224°
2026-05-07 19:00 43.10464 -2.08625 11207 ft 365 kts 224°
2026-05-07 19:01 43.08627 -2.10942 10987 ft 352 kts 222°
2026-05-07 19:01 43.06842 -2.13155 10738 ft 342 kts 222°
2026-05-07 19:01 43.05106 -2.15304 10538 ft 330 kts 222°
2026-05-07 19:01 43.03445 -2.17356 10377 ft 318 kts 222°
2026-05-07 19:02 43.01851 -2.19359 10197 ft 308 kts 226°
2026-05-07 19:02 43.00670 -2.21755 9995 ft 298 kts 248°
2026-05-07 19:02 43.00193 -2.24410 9933 ft 287 kts 266°
2026-05-07 19:02 43.00348 -2.27097 9937 ft 288 kts 284°
2026-05-07 19:03 43.01118 -2.29613 9934 ft 290 kts 300°
2026-05-07 19:03 43.02208 -2.31970 9793 ft 289 kts 302°
2026-05-07 19:03 43.03310 -2.34260 9674 ft 289 kts 302°
2026-05-07 19:03 43.04413 -2.36562 9549 ft 290 kts 302°
2026-05-07 19:04 43.05507 -2.38863 9426 ft 290 kts 302°
2026-05-07 19:04 43.06601 -2.41176 9298 ft 290 kts 302°
2026-05-07 19:04 43.07687 -2.43487 9175 ft 289 kts 302°
2026-05-07 19:04 43.08766 -2.45789 9046 ft 289 kts 302°
2026-05-07 19:05 43.09853 -2.48114 8919 ft 288 kts 302°
2026-05-07 19:05 43.10920 -2.50395 8791 ft 288 kts 302°
2026-05-07 19:05 43.12003 -2.52717 8655 ft 288 kts 302°
2026-05-07 19:05 43.13078 -2.55027 8532 ft 287 kts 302°
2026-05-07 19:06 43.14140 -2.57306 8408 ft 287 kts 302°
2026-05-07 19:06 43.16279 -2.61908 8159 ft 286 kts 302°
2026-05-07 19:06 43.17341 -2.64195 8042 ft 286 kts 301°
2026-05-07 19:07 43.18406 -2.66489 7916 ft 286 kts 301°
2026-05-07 19:07 43.19470 -2.68786 7793 ft 285 kts 301°
2026-05-07 19:07 43.20536 -2.71086 7660 ft 285 kts 301°
2026-05-07 19:07 43.21600 -2.73387 7529 ft 286 kts 301°
2026-05-07 19:08 43.22664 -2.75685 7408 ft 285 kts 301°
2026-05-07 19:08 43.23713 -2.77956 7291 ft 285 kts 301°
2026-05-07 19:08 43.24765 -2.80235 7147 ft 284 kts 301°
2026-05-07 19:08 43.25823 -2.82529 7028 ft 283 kts 301°
2026-05-07 19:09 43.26872 -2.84802 6880 ft 280 kts 301°
2026-05-07 19:09 43.27893 -2.87018 6691 ft 272 kts 301°
2026-05-07 19:09 43.28893 -2.89188 6531 ft 262 kts 301°
2026-05-07 19:09 43.29845 -2.91251 6343 ft 255 kts 302°
2026-05-07 19:10 43.30896 -2.93209 6150 ft 249 kts 309°
2026-05-07 19:10 43.32025 -2.94947 6020 ft 243 kts 311°
2026-05-07 19:10 43.33165 -2.96643 5899 ft 244 kts 311°
2026-05-07 19:10 43.34319 -2.98357 5776 ft 243 kts 311°
2026-05-07 19:11 43.35464 -3.00059 5656 ft 243 kts 311°
2026-05-07 19:11 43.36611 -3.01771 5527 ft 243 kts 311°
2026-05-07 19:11 43.37750 -3.03475 5405 ft 243 kts 311°
2026-05-07 19:11 43.38888 -3.05180 5297 ft 243 kts 311°
2026-05-07 19:12 43.40039 -3.06908 5182 ft 242 kts 311°
2026-05-07 19:12 43.41164 -3.08595 5060 ft 242 kts 312°
2026-05-07 19:12 43.42315 -3.10324 4904 ft 244 kts 312°
2026-05-07 19:12 43.43448 -3.12026 4598 ft 244 kts 312°
2026-05-07 19:13 43.44607 -3.13768 4271 ft 245 kts 312°
2026-05-07 19:13 43.45656 -3.15587 3933 ft 244 kts 293°
2026-05-07 19:13 43.45906 -3.17807 3615 ft 238 kts 256°
2026-05-07 19:13 43.45235 -3.19799 3506 ft 220 kts 225°
2026-05-07 19:14 43.44066 -3.20970 3491 ft 199 kts 197°
2026-05-07 19:14 43.42783 -3.21266 3506 ft 178 kts 173°
2026-05-07 19:14 43.41615 -3.20837 3557 ft 176 kts 152°
2026-05-07 19:14 43.40656 -3.19801 3527 ft 175 kts 131°
2026-05-07 19:15 43.40008 -3.18397 3521 ft 176 kts 117°
2026-05-07 19:15 43.39504 -3.16872 3517 ft 175 kts 115°
2026-05-07 19:15 43.39001 -3.15320 3519 ft 176 kts 116°
2026-05-07 19:15 43.38481 -3.13801 3511 ft 176 kts 117°
2026-05-07 19:16 43.37942 -3.12296 3339 ft 176 kts 117°
2026-05-07 19:16 43.37391 -3.10793 3091 ft 175 kts 118°
2026-05-07 19:16 43.36845 -3.09324 2847 ft 171 kts 118°
2026-05-07 19:16 43.36309 -3.07883 2624 ft 164 kts 118°
2026-05-07 19:17 43.35815 -3.06551 2398 ft 152 kts 118°
2026-05-07 19:17 43.35350 -3.05297 2191 ft 143 kts 118°
2026-05-07 19:17 43.34909 -3.04107 2000 ft 141 kts 117°
2026-05-07 19:17 43.34464 -3.02904 1814 ft 140 kts 118°
2026-05-07 19:18 43.34021 -3.01704 1632 ft 140 kts 117°
2026-05-07 19:18 43.33588 -3.00527 1445 ft 140 kts 118°
2026-05-07 19:18 43.33147 -2.99337 1254 ft 139 kts 117°
2026-05-07 19:18 43.32710 -2.98133 1074 ft 140 kts 117°
2026-05-07 19:19 43.32263 -2.96944 894 ft 141 kts 119°
2026-05-07 19:19 43.31802 -2.95742 710 ft 142 kts 117°
2026-05-07 19:19 43.31370 -2.94511 500 ft 143 kts 116°
2026-05-07 19:19 43.30928 -2.93301 298 ft 142 kts 118°
2026-05-07 19:20 43.30483 -2.92087 139 ft 138 kts 117°
2026-05-07 19:20 43.30112 -2.91065 134 ft 95 kts 116°
2026-05-07 19:20 43.29937 -2.90546 131 ft 39 kts 102°
2026-05-07 19:20 43.29928 -2.90300 132 ft 17 kts 87°
2026-05-07 19:21 43.29996 -2.90241 136 ft 12 kts 311°
2026-05-07 19:21 43.30032 -2.90342 138 ft 11 kts 296°
2026-05-07 19:21 43.30074 -2.90419 139 ft 9 kts 338°
2026-05-07 19:21 43.30105 -2.90418 141 ft 1 kts
2026-05-07 19:22 43.30107 -2.90416 141 ft 0 kts 23°
2026-05-07 19:22 43.30112 -2.90421 141 ft 1 kts 291°
2026-05-07 19:22 43.30096 -2.90453 140 ft 7 kts 233°
2026-05-07 19:22 43.30101 -2.90529 140 ft 8 kts 297°
2026-05-07 19:23 43.30151 -2.90573 142 ft 10 kts
2026-05-07 19:23 43.30218 -2.90528 146 ft 10 kts 16°
2026-05-07 19:23 43.30279 -2.90550 149 ft 5 kts 330°
2026-05-07 19:23 43.30308 -2.90579 150 ft 4 kts 325°
2026-05-07 19:24 43.30333 -2.90604 151 ft 4 kts 322°
2026-05-07 19:24 43.30358 -2.90610 152 ft 3 kts 23°
2026-05-07 19:24 43.30378 -2.90597 154 ft 2 kts 26°
2026-05-07 19:24 43.30399 -2.90583 155 ft 0 kts 26°